Location: Unspecified
(48.5539°N, 71.6350°W)
Time: 18:38:29
(UTC-05:00)

ISS - Pass Details

Date: 27 January 2019
Orbit: 403 x 411 km, 51.6° (Epoch: 22 February)

Event Time Altitude Azimuth Distance (km) Brightness Sun altitude
Rises 18:32:34 0° 258° (WSW) 2,332 1.7 -19.1°
Reaches altitude 10° 18:34:40 10° 262° (W) 1,474 0.3 -19.4°
Maximum altitude 18:37:57 65° 345° (NNW) 457 -3.7 -19.9°
Enters shadow 18:38:01 64° 352° (N) 458 -3.7 -20.0°
Drops below altitude 10° 18:41:16 10° 68° (ENE) 1,483 - -20.5°
Sets 18:43:22 0° 71° (ENE) 2,347 - -20.8°
